[TLELIST] Archives

 

[TLELIST] Current TLEs

December 28th 2023 PDT

HST 1 20580U 90037B 23361.58536175 .00006621 00000-0 33210-3 0 9996 2 20580 28.4703 59.3010 0002093 320.2813 157.9769 15.15335122651062 ISS (ZARYA) 1 25544U 98067A 23362.07956641 .00020066 00000-0 36106-3 0 9997 2 25544 51.6425 88.1076 0003103 319.6179 102.2593 15.49810232431867 CXO 1 25867U 99040B 23363.62805128 .00000427 00000-0 00000-0 0 9992 2 25867 38.1186 171.8718 9018172 282.8043 359.9098 0.37808415 13929 ...Continue Reading

[TLELIST] Current TLEs

December 27th 2023 PDT

HST 1 20580U 90037B 23360.59698993 .00006721 00000-0 33737-3 0 9998 2 20580 28.4702 65.8973 0002029 308.0743 167.6929 15.15322999650654 ISS (ZARYA) 1 25544U 98067A 23360.71436201 .00018455 00000-0 33343-3 0 9990 2 25544 51.6403 94.8746 0003368 316.7099 43.3625 15.49753125431658 CXO 1 25867U 99040B 23360.98382316 .00000347 00000-0 00000-0 0 9998 2 25867 38.0850 172.2287 9019923 282.5015 359.9763 0.37809092 13902 ...Continue Reading

[TLELIST] Current TLEs

December 27th 2023 PDT

HST 1 20580U 90037B 23360.59698993 .00006721 00000-0 33737-3 0 9998 2 20580 28.4702 65.8973 0002029 308.0743 167.6929 15.15322999650654 ISS (ZARYA) 1 25544U 98067A 23360.71436201 .00018455 00000-0 33343-3 0 9990 2 25544 51.6403 94.8746 0003368 316.7099 43.3625 15.49753125431658 CXO 1 25867U 99040B 23360.98382316 .00000347 00000-0 00000-0 0 9998 2 25867 38.0850 172.2287 9019923 282.5015 359.9763 0.37809092 13902 ...Continue Reading

[TLELIST] Current TLEs

December 26th 2023 PDT

HST 1 20580U 90037B 23359.60858278 .00007140 00000-0 35914-3 0 9997 2 20580 28.4701 72.4955 0002043 298.2422 174.8818 15.15310056650509 ISS (ZARYA) 1 25544U 98067A 23359.76507144 .00020249 00000-0 36546-3 0 9990 2 25544 51.6426 99.5712 0003107 312.8493 147.5918 15.49716429431506 CXO 1 25867U 99040B 23360.98382316 .00000347 00000-0 00000-0 0 9998 2 25867 38.0850 172.2287 9019923 282.5015 359.9763 0.37809092 13902 ...Continue Reading

[TLELIST] Current TLEs

December 25th 2023 PDT

HST 1 20580U 90037B 23358.69003597 .00007577 00000-0 38183-3 0 9996 2 20580 28.4698 78.6256 0002025 284.1927 208.1916 15.15297658650366 ISS (ZARYA) 1 25544U 98067A 23359.37992657 .00020259 00000-0 36585-3 0 9998 2 25544 51.6425 101.4778 0003014 312.6457 157.6731 15.49700627431446 CXO 1 25867U 99040B 23360.98382316 .00000347 00000-0 00000-0 0 9998 2 25867 38.0850 172.2287 9019923 282.5015 359.9763 0.37809092 13902 ...Continue Reading

[TLELIST] Current TLEs

December 24th 2023 PDT

HST 1 20580U 90037B 23357.70151383 .00007708 00000-0 38876-3 0 9999 2 20580 28.4694 85.2222 0002041 266.1840 223.0278 15.15283983650218 ISS (ZARYA) 1 25544U 98067A 23358.54126836 .00025158 00000-0 45256-3 0 9992 2 25544 51.6420 105.6310 0002539 302.8651 165.6136 15.49672002431316 CXO 1 25867U 99040B 23360.98316995 .00000347 00000-0 00000+0 0 9997 2 25867 38.0851 172.2284 9019924 282.5018 359.8872 0.37809184 25066 ...Continue Reading

[TLELIST] Current TLEs

December 23rd 2023 PDT

HST 1 20580U 90037B 23356.71317093 .00007467 00000-0 37647-3 0 9998 2 20580 28.4692 91.8190 0002121 256.1379 230.9265 15.15269810650067 ISS (ZARYA) 1 25544U 98067A 23356.79871559 .00021675 00000-0 37736-3 0 9990 2 25544 51.6407 114.2612 0002175 48.2628 51.5134 15.50694732431040 CXO 1 25867U 99040B 23353.05191155 .00000511 00000-0 00000-0 0 9990 2 25867 37.9681 173.3720 9018436 281.5573 0.2489 0.37806864 13884 ...Continue Reading

[TLELIST] Current TLEs

December 22nd 2023 PDT

HST 1 20580U 90037B 23355.58533608 .00006322 00000-0 31745-3 0 9996 2 20580 28.4691 99.3480 0002041 247.6379 194.8914 15.15251925649893 ISS (ZARYA) 1 25544U 98067A 23356.21354366 .00022625 00000-0 39383-3 0 9995 2 25544 51.6413 117.1614 0002662 41.3295 29.5914 15.50671209430950 CXO 1 25867U 99040B 23353.05191155 .00000511 00000-0 00000-0 0 9990 2 25867 37.9681 173.3720 9018436 281.5573 0.2489 0.37806864 13884 ...Continue Reading

[TLELIST] Current TLEs

December 21st 2023 PDT

HST 1 20580U 90037B 23354.73597057 .00006130 00000-0 30758-3 0 9990 2 20580 28.4688 105.0168 0002017 236.8278 243.2743 15.15240474649760 ISS (ZARYA) 1 25544U 98067A 23355.31412799 .00032857 00000-0 56826-3 0 9999 2 25544 51.6412 121.6274 0002555 43.5692 43.1953 15.50642142430811 CXO 1 25867U 99040B 23353.05191155 .00000511 00000-0 00000-0 0 9990 2 25867 37.9681 173.3720 9018436 281.5573 0.2489 0.37806864 13884 ...Continue Reading

[TLELIST] Current TLEs

December 20th 2023 PDT

HST 1 20580U 90037B 23353.53864154 .00005659 00000-0 28335-3 0 9995 2 20580 28.4686 113.0071 0002179 219.1690 196.6836 15.15225025649580 ISS (ZARYA) 1 25544U 98067A 23354.41299744 .00018101 00000-0 31769-3 0 9997 2 25544 51.6404 126.0928 0001896 47.3717 45.7843 15.50595703430674 CXO 1 25867U 99040B 23353.05191155 .00000511 00000-0 00000-0 0 9990 2 25867 37.9681 173.3720 9018436 281.5573 0.2489 0.37806864 13884 ...Continue Reading
  • This mailing list is a public mailing list - anyone may join or leave, at any time.
  • This mailing list is announce-only.

International Space Station (ISS) / Hubble Space Telescope (HST) / Chandra X-Ray Observatory Orbital Data via EMAIL

Privacy Policy:

Private list